YAMAL 401

Last updated on May 23, 2019, 3:05 a.m. UTC

1 40345U 14082A   19142.84052705 -.00000236  00000-0  00000+0 0  9990
2 40345   0.0103 263.0358 0001458 212.1409 157.5390  1.00268444 16518
UTC
Height (km)
Latitude
Longitude
Inclination
Orbital Period
UTC large
Height (km)
Speed (km/s)
/
Latitude / Longitude
Inclination (degrees)
Orbital Period (minutes)
Azimuth
Elevation
Range (km)
Doppler Factor
iOS Compass Heading
iOS Angle

Next 30 passes for location: Hong Kong

Rise time Rise Azimuth (degrees) Set time Set Azimuth (degrees) Duration Max altitude (degrees)

No matching passes for this satellites